EW0079 Weather Reports


time (UTC)temp
C
wind
direction
speed
KPH
gust
KPH
rain 1hr
cm
rain 24hr
cm
rain mn
cm
humidity
%
barometer
mb
20260507121512 9 11 1.6 8.0 0.97 6.50 6.50 1 1014.8
20260507120013 8 25 1.6 6.4 1.42 6.35 6.35 1 1015.1
20260507114512 7 341 1.6 6.4 1.91 6.25 6.25 1 1015.2
20260507113013 6 323 1.6 6.4 1.98 6.02 6.02 1 1015.4
20260507111512 5 353 0.0 1.6 2.90 5.51 5.51 1 1015.6
20260507110013 5 24 6.4 17.7 3.53 4.88 4.88 1 1015.5
20260507104513 6 30 3.2 14.5 3.53 4.34 4.34 1 1014.9
20260507103012 6 274 8.0 14.5 3.99 3.99 3.99 3 1015.5
20260507100012 9 107 3.2 3.2 1.37 1.37 1.37 47 1015.2
20260507093011 12 109 4.8 16.1 0.00 0.00 0.00 54 1015.2
20260507091511 12 107 9.7 17.7 0.00 0.00 0.00 51 1015.2
20260507090011 12 120 9.7 17.7 0.00 0.00 0.00 52 1015.3
20260507084511 12 132 11.3 20.9 0.00 0.00 0.00 54 1015.2
20260507083012 12 131 11.3 22.5 0.00 0.00 0.00 51 1015.2
20260507081511 11 130 11.3 27.4 0.00 0.00 0.00 39 1015.2
20260507080011 11 115 11.3 22.5 0.00 0.00 0.00 28 1015.0
20260507074511 11 118 11.3 24.1 0.00 0.00 0.00 26 1014.9
20260507071511 10 108 12.9 25.7 0.00 0.00 0.00 7 1014.7
20260507070013 10 105 9.7 20.9 0.00 0.00 0.00 1 1014.6
20260507064511 10 99 9.7 20.9 0.00 0.00 0.00 1 1014.4
20260507063012 9 100 6.4 16.1 0.00 0.00 0.00 1 1014.3
20260507061512 9 96 8.0 20.9 0.00 0.00 0.00 1 1014.0
20260507060011 9 98 6.4 16.1 0.00 0.00 0.00 1 1014.0
20260507054512 9 97 8.0 16.1 0.00 0.00 0.00 1 1013.8
20260507053012 9 96 6.4 16.1 0.00 0.00 0.00 1 1013.9
20260507051511 8 90 6.4 16.1 0.00 0.00 0.00 1 1013.7
20260507050011 8 90 8.0 17.7 0.00 0.00 0.00 1 1013.5
20260507044512 8 88 8.0 19.3 0.00 0.00 0.00 1 1013.5
20260507043011 8 87 8.0 24.1 0.00 0.00 0.00 1 1013.4
20260507040011 8 79 8.0 16.1 0.00 0.00 0.00 1 1013.3
20260507034511 8 82 6.4 17.7 0.00 0.00 0.00 1 1013.4
20260507033011 8 86 6.4 12.9 0.00 0.00 0.00 1 1013.5
20260507031512 8 84 8.0 20.9 0.00 0.00 0.00 1 1013.5
20260507030011 8 85 6.4 16.1 0.00 0.00 0.00 1 1013.5
20260507024512 8 89 6.4 16.1 0.00 0.00 0.00 1 1013.6
20260507023011 8 82 6.4 19.3 0.00 0.00 0.00 1 1013.5
20260507020011 8 90 6.4 12.9 0.00 0.00 0.00 1 1013.6
20260507014512 8 90 6.4 14.5 0.00 0.00 0.00 1 1013.6
20260507013011 8 89 6.4 12.9 0.00 0.00 0.00 1 1013.7
20260507010012 8 83 3.2 12.9 0.00 0.00 0.00 1 1013.9
20260507004511 9 105 6.4 9.7 0.00 0.00 0.00 1 1013.9
20260507003012 9 109 6.4 12.9 0.00 0.00 0.00 1 1014.0
20260507001512 9 102 4.8 11.3 0.00 0.00 0.00 1 1013.9
20260507000011 9 107 4.8 9.7 0.00 0.00 0.00 1 1013.9
20260506233012 9 104 8.0 12.9 0.00 0.00 0.00 1 1013.8
20260506231511 10 99 4.8 11.3 0.00 0.00 0.00 1 1014.1
20260506223012 10 107 8.0 16.1 0.00 0.00 0.00 10 1013.9
20260506221512 11 107 11.3 20.9 0.00 0.00 0.00 18 1014.0
20260506220013 11 106 8.0 20.9 0.00 0.00 0.00 19 1014.0
20260506214512 11 103 9.7 19.3 0.00 0.00 0.00 17 1014.0
20260506213011 11 103 8.0 20.9 0.00 0.00 0.00 20 1013.9
20260506211511 12 106 9.7 19.3 0.00 0.00 0.00 27 1013.8
20260506210012 12 94 6.4 17.7 0.00 0.00 0.00 34 1013.8
20260506204511 12 100 4.8 12.9 0.00 0.00 0.00 37 1013.7
20260506203012 13 86 4.8 11.3 0.00 0.00 0.00 47 1013.5
20260506201512 13 81 4.8 12.9 0.00 0.00 0.00 60 1013.4
20260506200012 15 77 8.0 17.7 0.00 0.00 0.00 53 1013.4
20260506194511 15 66 6.4 16.1 0.00 0.00 0.00 45 1013.0
20260506193011 15 67 8.0 19.3 0.00 0.00 0.00 45 1013.0
20260506191512 15 66 8.0 16.1 0.00 0.00 0.00 45 1013.0
20260506190011 16 71 6.4 16.1 0.00 0.00 0.00 43 1012.9
20260506184512 16 72 6.4 14.5 0.00 0.00 0.00 41 1013.0
20260506183012 16 67 8.0 16.1 0.00 0.00 0.00 41 1012.9
20260506181512 17 66 8.0 14.5 0.00 0.00 0.00 39 1012.9
20260506180011 17 68 6.4 14.5 0.00 0.00 0.00 37 1013.0
20260506174512 17 44 8.0 14.5 0.00 0.00 0.00 36 1012.9
20260506173012 17 43 9.7 19.3 0.00 0.00 0.00 36 1012.9
20260506171512 18 359 3.2 11.3 0.00 0.00 0.00 33 1013.0
20260506170011 18 214 3.2 11.3 0.00 0.00 0.00 25 1013.1
20260506164512 18 250 6.4 11.3 0.00 0.00 0.00 26 1013.1
20260506163011 19 151 8.0 14.5 0.00 0.00 0.00 23 1013.1
20260506161512 19 205 3.2 27.4 0.00 0.00 0.00 23 1013.0
20260506160012 19 169 3.2 11.3 0.00 0.00 0.00 20 1013.1
20260506154511 19 216 6.4 16.1 0.00 0.00 0.00 21 1013.3
20260506153012 19 116 9.7 20.9 0.00 0.00 0.00 20 1013.3
20260506150011 19 127 3.2 14.5 0.00 0.00 0.00 21 1013.4
20260506144511 19 158 4.8 12.9 0.00 0.00 0.00 22 1013.6
20260506143012 19 31 3.2 9.7 0.00 0.00 0.00 23 1013.7
20260506141512 18 192 4.8 9.7 0.00 0.00 0.00 23 1013.9
20260506134512 18 217 6.4 19.3 0.00 0.00 0.00 27 1014.2
20260506133012 18 234 6.4 22.5 0.00 0.00 0.00 26 1014.3
20260506131512 18 192 6.4 17.7 0.00 0.00 0.00 25 1014.3
20260506130012 17 258 3.2 8.0 0.00 0.00 0.00 24 1014.5
20260506124512 17 163 6.4 35.4 0.00 0.00 0.00 27 1014.7